Regional Weather Roundup
Issued by NWS

Home | Current Version | Previous Version | Graphics & Text | Print | Product List | Glossary On
Versions: 1 2 3 4 5 6 7 8 9 10 11 12 13 14 15 16 17 18 19 20 21 22 23 24 25 26 27 28 29 30 31 32 33 34 35 36 37 38 39 40 41 42 43 44 45 46 47 48 49 50
000
ASUS43 KLOT 222112
RWRIL

ILLINOIS REGIONAL WEATHER ROUNDUP
NATIONAL WEATHER SERVICE CHICAGO/ROMEOVILLE IL
400 PM CDT FRI MAY 22 2015

NOTE: "FAIR" INDICATES FEW OR NO CLOUDS BELOW 12,000 FEET WITH NO
SIGNIFICANT WEATHER AND/OR OBSTRUCTIONS TO VISIBILITY.

* THESE STATIONS ARE NOT UNDER NWS QUALITY CONTROL. THEY ALSO MAY NOT
  REPORT WEATHER SUCH AS PRECIPITATION OR FOG.

ILZ001-002-007-009-015-016-024-222200-
NORTHWEST ILLINOIS

CITY           SKY/WX    TMP DP  RH WIND       PRES   REMARKS
MOLINE         CLOUDY    76  37  24 CALM      30.19S
STERLING*      PTSUNNY   75  43  31 N3        30.20S
SAVANNA*       PTSUNNY   74  36  25 NW3       30.20S
$$

ILZ003-004-008-010-011-017-018-222200-
NORTH CENTRAL ILLINOIS

CITY           SKY/WX    TMP DP  RH WIND       PRES   REMARKS
ROCKFORD       PTSUNNY   73  36  25 VRB5      30.23F
FREEPORT*      MOSUNNY   71  38  30 CALM      30.22F
ROCHELLE*      MOSUNNY   73  36  26 CALM      30.21S
DE KALB*       MOSUNNY   70  37  29 CALM      30.22S
PERU*          PTSUNNY   75  37  25 CALM      30.20F
$$

ILZ005-006-012>014-019>023-222200-
NORTHEAST ILLINOIS

CITY           SKY/WX    TMP DP  RH WIND       PRES   REMARKS
CHICAGO-OHARE  PTSUNNY   64  28  25 E12       30.24S
CHICAGO-MIDWAY PTSUNNY   65  29  25 E10       30.25S
AURORA         MOSUNNY   73  35  25 VRB6      30.22S
LANSING*       SUNNY     62  31  32 NE12      30.26S
JOLIET*        MOSUNNY   73  43  34 CALM      30.22R
WAUKEGAN       SUNNY     56  29  35 E9        30.27S
DUPAGE AIRPORT SUNNY     70  36  28 NE9       30.22F
KANKAKEE*      PTSUNNY   74  44  33 NE6       30.22R
WHEELING       SUNNY     60  25  26 NE12      30.28R
MORRIS*        MOSUNNY   74  37  25 NE3       30.20R
ROMEOVILLE*    MOSUNNY   70  36  29 E13       30.23R
NORTHERLY ISL    N/A     54  37  52 MISG        N/A
$$

LMZ740>746-222200-
SOUTHERN LAKE MICHIGAN

STATION/POSITION SKY/WX   TEMP    WIND        PRES    VSBY  WAVE
                          AIR SEA DIR/SP/G                  HT/PER
                          (F)     (DEG/KT/KT) (MB)    (MI)  (FT/S)
SOUTHERN BUOY              41 38  360/  6/  6 1026.6R         0
HARRISON CRIB              48      10/  7/  8   N/A
BURNHAM HARBOR             53      30/ 10       N/A
CALUMET HARBOR             51      20/  9/ 11   N/A
BURNS HARBOR               52      50/ 11/ 13 1025.4R
MICHIGAN CITY              50      20/ 13/ 14   N/A
MICHIGAN CITY 6N           50 51   60/  8/ 12   N/A           2/ 3
ST. JOSEPH                 52 53   50/ 14/ 16   N/A           2/ 3
$$

ILZ025>027-034>036-040-047-049-050-058-095>099-222200-
WEST-CENTRAL ILLINOIS

CITY           SKY/WX    TMP DP  RH WIND       PRES   REMARKS
QUINCY         CLOUDY    74  39  28 NW5       30.21F
GALESBURG*     CLOUDY    76  40  26 SW3       30.20F
MACOMB*        CLOUDY    76  38  25 S5        30.22F
JACKSONVILLE*  CLOUDY    78  40  25 SW8       30.21F
PITTSFIELD*    CLOUDY    75  43  32 SW5       30.23F
$$

ILZ028>032-037-038-041>044-048-051>054-059>061-222200-
CENTRAL ILLINOIS

CITY           SKY/WX    TMP DP  RH WIND       PRES   REMARKS
PONTIAC        PTSUNNY   78  37  23 W7        30.20F
BLOOMINGTON    CLOUDY    76  40  27 SW9       30.22S
DECATUR        PTSUNNY   75  41  29 W6        30.21S
PEORIA         CLOUDY    78  42  27 W6        30.21S
LACON*         PTSUNNY   75  41  29 SW5       30.19S
LINCOLN*       PTSUNNY   78  37  22 CALM      30.19S
SPRINGFIELD    CLOUDY    78  41  26 NW6       30.21F
TAYLORVILLE    CLOUDY    73  41  31 CALM      30.22S
$$

ILZ033-039-045-046-055>057-062-063-222200-
EAST-CENTRAL ILLINOIS

CITY           SKY/WX    TMP DP  RH WIND       PRES   REMARKS
CHAMPAIGN      PTSUNNY   77  38  24 W7        30.20F
DANVILLE*      PTSUNNY   74  41  30 CALM      30.19R
RANTOUL*       PTSUNNY   79  41  25 W6        30.20S
MATTOON        PTSUNNY   74  43  32 W8        30.21S
PARIS*         PTSUNNY   77  39  25 CALM      30.21S
$$

ILZ079-100>102-222200-
SOUTHWEST ILLINOIS

CITY           SKY/WX    TMP DP  RH WIND       PRES   REMARKS
ALTON          CLOUDY    73  48  40 W8        30.23F
BELLEVILLE     CLOUDY    74  51  45 W3        30.22S
CAHOKIA*       CLOUDY    73  47  39 W5        30.23S
SPARTA*        CLOUDY    72  52  50 SW7       30.25S
$$

ILZ064>066-069>071-074>076-080>082-084>086-088>090-092>094-222200-
SOUTH-CENTRAL ILLINOIS

CITY           SKY/WX    TMP DP  RH WIND       PRES   REMARKS
CARBONDALE     CLOUDY    70  52  52 SW10      30.25F
CAIRO*         MOSUNNY   72  49  44 S5        30.26S
EFFINGHAM*     CLOUDY    74  41  30 SW6       30.25S
MARION         MOSUNNY   72  54  53 SW12      30.26F
MT. VERNON     CLOUDY    73  48  40 SW6       30.24F
CENTRALIA*     CLOUDY    76  44  32 W6        30.23F
SALEM*         CLOUDY    75  43  31 SW3       30.23F
METROPOLIS*    PTSUNNY   73  48  40 NW3       30.25F
$$

ILZ067-068-072-073-078-083-087-091-222200-
SOUTHEAST ILLINOIS

CITY           SKY/WX    TMP DP  RH WIND       PRES   REMARKS
LAWRENCEVILLE  PTSUNNY   75  47  36 W13       30.24S
FLORA*         PTSUNNY   74  44  35 W7        30.24S
FAIRFIELD*     CLOUDY    74  48  40 W3        30.22F
HARRISBURG*    PTSUNNY   74  49  41 SW7       30.26S
ROBINSON*      PTSUNNY   74  45  34 W8        30.24S
CARMI*         PTSUNNY   76  41  28 SW9       30.23F
$$

ABBREVIATIONS USED IN REMARKS
   TC - TEMPERATURE IN CELSIUS
  WCI - WIND CHILL INDEX
   HX - HEAT INDEX
  VSB - VISIBILITY
$$




USA.gov is the U.S. government's official web portal to all federal, state and local government web resources and services.